Regional Weather Roundup
Issued by NWS

Home | Current Version | Previous Version | Graphics & Text | Print | Product List | Glossary On
Versions: 1 2 3 4 5 6 7 8 9 10 11 12 13 14 15 16 17 18 19 20 21 22 23 24 25 26 27 28 29 30 31 32 33 34 35 36 37 38 39 40 41 42 43 44 45 46 47 48 49 50
000
ASUS43 KTOP 090208
RWRKS

WEATHER ROUNDUP FOR KANSAS
NATIONAL WEATHER SERVICE GOODLAND KS
800 PM CST THU DEC 08 2016

NOTE:  "FAIR" INDICATES FEW OR NO CLOUDS BELOW 12,000 FEET WITH NO
SIGNIFICANT WEATHER AND/OR OBSTRUCTIONS TO VISIBILITY.

KSZ001>006-013>018-027>032-041>047-090300-
NORTHWEST KANSAS

CITY           SKY/WX    TMP DP  RH WIND       PRES   REMARKS
GOODLAND       CLOUDY     2  -4  76 S8        30.46F
HAYS           CLEAR     13   5  70 NE7       30.63R
HILL CITY      CLOUDY     7   0  73 NW3       30.62R
RUSSELL        CLEAR     16   5  62 N6        30.63R
$$

KSZ061>065-074>080-084>089-090300-
SOUTHWEST KANSAS

CITY           SKY/WX    TMP DP  RH WIND       PRES   REMARKS
DODGE CITY     CLOUDY    13   6  74 W5        30.59R
ELKHART          N/A     20  -3  36 SE9         N/A
GARDEN CITY    CLOUDY    18   6  59 SE5       30.56S
GREAT BEND     CLEAR     15   7  70 NE3       30.63S
LIBERAL        CLOUDY    25   1  36 E6        30.56S
PRATT          CLEAR     17   3  54 NE3       30.62F
$$

KSZ066>073-081>083-090>101-090300-
SOUTHEAST KANSAS

CITY           SKY/WX    TMP DP  RH WIND       PRES   REMARKS
CHANUTE        CLEAR     20  12  71 NW6       30.66R
COFFEYVILLE    CLEAR     20  11  68 N8        30.68R
HUTCHINSON     CLEAR     14   7  73 N5        30.65R
MEDICINE LODGE   N/A     17   5  59 N3        30.64S
PARSONS        CLEAR     18  11  74 N6        30.67S
WICHITA INTL   CLEAR     21  10  62 N8        30.66R
WICHITA JABRA  CLEAR     17   9  70 N6        30.65S
WICHITA MCCONL CLEAR     17   8  68 N6        30.65R
WINFIELD       CLEAR     18   9  68 N5        30.67S
$$

KSZ007>012-019>026-033>040-048>060-102>105-090300-
NORTHEAST KANSAS

CITY           SKY/WX    TMP DP  RH WIND       PRES   REMARKS
CONCORDIA      CLEAR     18   8  65 N3        30.64S
EMPORIA        CLEAR     14  10  84 CALM      30.65S
LAWRENCE       CLEAR     17   9  70 CALM      30.66R
MANHATTAN      CLEAR     17   9  70 CALM      30.67R
MARYSVILLE     CLEAR     14   9  79 CALM      30.65R
OLATHE IND     CLEAR     18  10  71 NW7       30.65R
OLATHE EXE     CLEAR     19   9  65 NW5       30.63S
SALINA         CLEAR     17   9  70 W7        30.67R
TOPEKA BILLARD CLEAR     21  10  62 NW3       30.66S
TOPEKA FORBES  CLEAR     16   9  74 W6        30.65R
$$



USA.gov is the U.S. government's official web portal to all federal, state and local government web resources and services.